Location: Eaglesham
(55.7833°N, 117.9000°W)
Time: 19:08:09
(UTC+00:00)

ISS - Pass Details

Date: 03 December 2021
Orbit: 413 x 422 km, 51.6° (Epoch: 23 January)

Event Time Altitude Azimuth Distance (km) Brightness Sun altitude
Rises 02:08:21 0° 273° (W) 2,385 1.5 -21.9°
Reaches altitude 10° 02:10:43 10° 258° (WSW) 1,515 0.2 -22.2°
Maximum altitude 02:13:28 23° 204° (SSW) 952 -1.7 -22.6°
Enters shadow 02:13:56 22° 191° (S) 972 -1.8 -22.7°
